QPF
0.01 0.01 0.01 0.01 0.01 0.03 0.05 0.07 0.07 0.07 0.10 0.08 0.05 0.03 0.02 0.02 0.01 0.01 0.02 0.04 0.06 0.07 0.06 0.06 0.05 0.06 0.06 0.06 0.06 0.05 0.04 0.03 0.04 0.04 0.05 0.07 0.06 0.06 0.05 0.05 0.05 0.07 0.10
0.01 0.01 0.01 0.01 0.02 0.01 0.02 0.02 0.01 0.02 0.06 0.07 0.04 0.03 0.03 0.03 0.02 0.02 0.02 0.02 0.03 0.06 0.07 0.06 0.05 0.06 0.05 0.04 0.05 0.05 0.03 0.03 0.02 0.02 0.02 0.04 0.05 0.04 0.03 0.03 0.03 0.04 0.07
0.02 0.02 0.02 0.02 0.02 0.01 0.01 0.01 0.01 0.01 0.04 0.05 0.04 0.03 0.03 0.03 0.03 0.03 0.02 0.02 0.02 0.04 0.06 0.05 0.04 0.04 0.03 0.03 0.04 0.03 0.03 0.02 0.02 0.01 0.02 0.02 0.02 0.02 0.02 0.02 0.03 0.03 0.05
0.01 0.02 0.02 0.02 0.01 0.01 0.01 0.01 0.01 0.02 0.03 0.04 0.04 0.03 0.03 0.02 0.03 0.03 0.02 0.02 0.02 0.02 0.03 0.03 0.03 0.03 0.03 0.02 0.02 0.02 0.02 0.02 0.02 0.01 0.01 0.02 0.02 0.03 0.02 0.02 0.02 0.02 0.03
0.01 0.01 0.02 0.02 0.01 0.01 0.02 0.03 0.03 0.02 0.02 0.02 0.03 0.03 0.03 0.03 0.02 0.02 0.02 0.02 0.01 0.02 0.02 0.01 0.01 0.02 0.03 0.03 0.02 0.02 0.02 0.01 0.01 0.01 0.01 0.02 0.03 0.04 0.03 0.02 0.02 0.02 0.03
0.01 0.01 0.01 0.01 0.02 0.02 0.02 0.03 0.05 0.06 0.04 0.03 0.02 0.03 0.04 0.03 0.03 0.02 0.03 0.02 0.02 0.02 0.02 0.01 0.01 0.02 0.06 0.06 0.04 0.02 0.02 0.02 0.01 0.01 0.01 0.02 0.03 0.03 0.03 0.03 0.03 0.02 0.02
0.01 0.03 0.02 0.02 0.02 0.02 0.02 0.01 0.03 0.07 0.07 0.05 0.04 0.04 0.05 0.04 0.04 0.04 0.04 0.03 0.02 0.02 0.02 0.02 0.02 0.01 0.03 0.05 0.04 0.02 0.02 0.03 0.03 0.02 0.02 0.03 0.03 0.04 0.04 0.03 0.03 0.03 0.03
0.01 0.02 0.03 0.03 0.02 0.02 0.01 0.01 0.02 0.03 0.03 0.03 0.05 0.06 0.05 0.05 0.04 0.03 0.03 0.02 0.01 0.01 0.01 0.01 0.01 0.02 0.03 0.03 0.02 0.02 0.02 0.02 0.03 0.04 0.04 0.04 0.04 0.05 0.05 0.04 0.04 0.04 0.04
0.01 0.02 0.02 0.02 0.02 0.02 0.02 0.02 0.01 0.01 0.03 0.02 0.02 0.05 0.06 0.06 0.05 0.04 0.03 0.02 0.01 0.01 0.01 0.00 0.01 0.01 0.01 0.01 0.01 0.01 0.01 0.02 0.03 0.03 0.04 0.05 0.06 0.07 0.07 0.05 0.05 0.04 0.04
0.01 0.02 0.02 0.01 0.01 0.02 0.03 0.02 0.01 0.02 0.02 0.03 0.01 0.02 0.03 0.04 0.04 0.03 0.03 0.02 0.01 0.01 0.01 0.00 0.01 0.01 0.01 0.01 0.01 0.01 0.01 0.01 0.02 0.02 0.03 0.04 0.04 0.06 0.08 0.10 0.10 0.08 0.06
0.02 0.02 0.02 0.01 0.01 0.02 0.03 0.03 0.03 0.03 0.02 0.03 0.03 0.02 0.02 0.02 0.02 0.03 0.02 0.01 0.01 0.00 0.00 0.00 0.01 0.01 0.01 0.01 0.01 0.01 0.01 0.00 0.01 0.01 0.03 0.03 0.03 0.04 0.04 0.06 0.10 0.13 0.11
0.02 0.03 0.03 0.02 0.02 0.02 0.03 0.02 0.02 0.02 0.03 0.03 0.03 0.02 0.03 0.03 0.03 0.02 0.01 0.01 0.01 0.00 0.00 0.00 0.00 0.00 0.00 0.00 0.00 0.00 0.00 0.00 0.00 0.01 0.01 0.02 0.02 0.02 0.02 0.03 0.05 0.08 0.11
0.01 0.02 0.01 0.02 0.01 0.01 0.01 0.01 0.01 0.01 0.02 0.02 0.02 0.02 0.02 0.01 0.01 0.01 0.01 0.01 0.01 0.00 0.00 0.00 0.00 0.00 0.00 0.00 0.00 0.00 0.00 0.00 0.00 0.00 0.00 0.00 0.01 0.00 0.01 0.02 0.05 0.05 0.05
0.02 0.02 0.02 0.02 0.02 0.01 0.01 0.01 0.01 0.01 0.01 0.02 0.02 0.02 0.01 0.01 0.01 0.01 0.01 0.01 0.01 0.01 0.01 0.01 0.00 0.00 0.00 0.00 0.00 0.00 0.00 0.00 0.00 0.00 0.00 0.00 0.00 0.00 0.00 0.01 0.03 0.05 0.06
0.02 0.03 0.02 0.02 0.02 0.01 0.01 0.01 0.01 0.01 0.01 0.02 0.02 0.02 0.02 0.01 0.00 0.00 0.01 0.01 0.02 0.02 0.02 0.01 0.01 0.00 0.00 0.00 0.00 0.00 0.00 0.00 0.00 0.00 0.00 0.00 0.00 0.00 0.00 0.01 0.02 0.04 0.06
0.02 0.02 0.02 0.02 0.01 0.01 0.01 0.00 0.01 0.01 0.01 0.02 0.02 0.02 0.02 0.01 0.00 0.00 0.01 0.01 0.01 0.01 0.01 0.01 0.01 0.01 0.00 0.00 0.00 0.00 0.00 0.00 0.00 0.00 0.00 0.00 0.00 0.00 0.00 0.01 0.02 0.03 0.06
0.02 0.02 0.01 0.01 0.01 0.01 0.01 0.01 0.01 0.02 0.01 0.01 0.01 0.01 0.01 0.01 0.01 0.01 0.01 0.01 0.01 0.01 0.01 0.01 0.01 0.01 0.01 0.00 0.00 0.00 0.01 0.01 0.00 0.00 0.00 0.00 0.01 0.00 0.01 0.01 0.01 0.02 0.04
0.01 0.01 0.01 0.01 0.01 0.01 0.01 0.01 0.01 0.02 0.02 0.01 0.01 0.01 0.01 0.01 0.01 0.01 0.01 0.01 0.01 0.01 0.02 0.02 0.01 0.01 0.02 0.01 0.01 0.00 0.01 0.02 0.01 0.01 0.00 0.00 0.00 0.00 0.00 0.01 0.01 0.01 0.02
0.01 0.01 0.01 0.01 0.02 0.02 0.01 0.01 0.01 0.01 0.01 0.02 0.02 0.02 0.01 0.01 0.01 0.01 0.01 0.01 0.01 0.01 0.02 0.02 0.02 0.02 0.02 0.02 0.02 0.02 0.03 0.04 0.03 0.02 0.01 0.00 0.00 0.01 0.01 0.01 0.01 0.01 0.01
0.01 0.02 0.02 0.01 0.01 0.01 0.01 0.01 0.01 0.01 0.01 0.01 0.01 0.02 0.02 0.02 0.01 0.01 0.01 0.01 0.02 0.02 0.01 0.02 0.02 0.02 0.02 0.02 0.02 0.03 0.05 0.06 0.05 0.03 0.02 0.01 0.01 0.01 0.01 0.01 0.01 0.01 0.01
0.01 0.02 0.03 0.02 0.01 0.01 0.01 0.01 0.01 0.01 0.01 0.01 0.01 0.01 0.01 0.02 0.02 0.02 0.02 0.02 0.02 0.02 0.02 0.02 0.02 0.02 0.02 0.03 0.03 0.02 0.08 0.09 0.08 0.05 0.03 0.02 0.02 0.02 0.01 0.01 0.01 0.01 0.01
0.01 0.02 0.02 0.03 0.02 0.01 0.01 0.01 0.01 0.01 0.01 0.01 0.01 0.00 0.01 0.01 0.01 0.01 0.01 0.01 0.01 0.01 0.02 0.02 0.02 0.02 0.02 0.02 0.02 0.01 0.05 0.09 0.08 0.05 0.04 0.03 0.02 0.02 0.02 0.02 0.01 0.01 0.01
0.00 0.01 0.01 0.02 0.02 0.02 0.02 0.01 0.01 0.01 0.01 0.01 0.01 0.01 0.00 0.00 0.00 0.01 0.01 0.00 0.01 0.01 0.01 0.02 0.02 0.01 0.01 0.02 0.01 0.01 0.02 0.05 0.05 0.03 0.03 0.04 0.02 0.02 0.02 0.01 0.01 0.01 0.01
0.01 0.00 0.01 0.01 0.02 0.03 0.03 0.02 0.01 0.01 0.01 0.01 0.01 0.01 0.01 0.01 0.01 0.01 0.01 0.01 0.01 0.01 0.01 0.01 0.01 0.01 0.01 0.02 0.01 0.01 0.02 0.03 0.03 0.03 0.03 0.06 0.05 0.02 0.01 0.01 0.01 0.00 0.00
0.01 0.01 0.00 0.01 0.02 0.02 0.03 0.04 0.03 0.02 0.01 0.00 0.01 0.01 0.01 0.01 0.01 0.00 0.01 0.02 0.01 0.01 0.01 0.00 0.01 0.02 0.01 0.02 0.01 0.01 0.01 0.02 0.03 0.02 0.02 0.05 0.04 0.02 0.01 0.01 0.00 0.00 0.00
0.02 0.02 0.02 0.01 0.01 0.01 0.01 0.02 0.04 0.04 0.02 0.01 0.01 0.01 0.01 0.01 0.01 0.01 0.01 0.01 0.01 0.01 0.01 0.01 0.01 0.01 0.01 0.01 0.01 0.01 0.01 0.01 0.02 0.02 0.01 0.03 0.03 0.01 0.01 0.00 0.00 0.00 0.00
MSLP
1016.21 1016.40 1016.58 1016.74 1016.89 1017.04 1017.19 1017.34 1017.48 1017.57 1017.60 1017.57 1017.49 1017.36 1017.24 1017.15 1017.12 1017.16 1017.26 1017.39 1017.51 1017.59 1017.57 1017.46 1017.25 1016.96 1016.64 1016.30 1015.99 1015.71 1015.47 1015.25 1015.03 1014.78 1014.49 1014.16 1013.77 1013.34 1012.88 1012.40 1011.91 1011.41 1010.93
1016.53 1016.71 1016.88 1017.03 1017.18 1017.32 1017.46 1017.60 1017.71 1017.77 1017.77 1017.71 1017.61 1017.47 1017.34 1017.25 1017.21 1017.26 1017.35 1017.48 1017.59 1017.66 1017.65 1017.54 1017.34 1017.07 1016.77 1016.46 1016.18 1015.93 1015.70 1015.48 1015.25 1014.98 1014.65 1014.27 1013.82 1013.32 1012.79 1012.24 1011.69 1011.15 1010.63
1016.80 1016.96 1017.10 1017.25 1017.38 1017.52 1017.65 1017.77 1017.85 1017.89 1017.86 1017.78 1017.65 1017.50 1017.36 1017.25 1017.20 1017.22 1017.29 1017.39 1017.47 1017.52 1017.50 1017.40 1017.23 1017.00 1016.75 1016.50 1016.27 1016.05 1015.86 1015.65 1015.41 1015.12 1014.76 1014.32 1013.82 1013.26 1012.68 1012.08 1011.49 1010.92 1010.37
1017.02 1017.15 1017.27 1017.40 1017.52 1017.65 1017.77 1017.87 1017.93 1017.95 1017.90 1017.80 1017.65 1017.47 1017.31 1017.17 1017.09 1017.07 1017.09 1017.14 1017.18 1017.20 1017.16 1017.07 1016.93 1016.76 1016.58 1016.40 1016.24 1016.09 1015.93 1015.74 1015.50 1015.18 1014.78 1014.30 1013.75 1013.16 1012.54 1011.92 1011.31 1010.73 1010.17
1017.22 1017.31 1017.40 1017.50 1017.61 1017.73 1017.84 1017.93 1017.98 1017.97 1017.91 1017.79 1017.62 1017.43 1017.24 1017.07 1016.94 1016.86 1016.82 1016.81 1016.79 1016.76 1016.70 1016.62 1016.52 1016.40 1016.30 1016.20 1016.12 1016.03 1015.92 1015.75 1015.50 1015.16 1014.72 1014.20 1013.62 1013.01 1012.38 1011.77 1011.17 1010.58 1010.01
1017.39 1017.44 1017.51 1017.59 1017.68 1017.79 1017.89 1017.97 1018.01 1018.00 1017.93 1017.79 1017.61 1017.40 1017.19 1016.99 1016.81 1016.67 1016.56 1016.47 1016.39 1016.31 1016.22 1016.14 1016.06 1016.01 1015.97 1015.96 1015.95 1015.92 1015.84 1015.69 1015.43 1015.06 1014.60 1014.05 1013.45 1012.83 1012.22 1011.62 1011.04 1010.46 1009.87
1017.53 1017.54 1017.58 1017.64 1017.73 1017.83 1017.93 1018.01 1018.05 1018.03 1017.96 1017.83 1017.64 1017.43 1017.20 1016.97 1016.75 1016.55 1016.37 1016.21 1016.06 1015.91 1015.79 1015.70 1015.64 1015.63 1015.65 1015.70 1015.76 1015.78 1015.73 1015.59 1015.32 1014.93 1014.44 1013.87 1013.27 1012.66 1012.06 1011.49 1010.93 1010.35 1009.72
1017.59 1017.58 1017.60 1017.65 1017.73 1017.83 1017.93 1018.02 1018.06 1018.06 1017.99 1017.87 1017.70 1017.50 1017.27 1017.02 1016.78 1016.53 1016.29 1016.05 1015.83 1015.62 1015.46 1015.34 1015.28 1015.30 1015.37 1015.47 1015.57 1015.63 1015.61 1015.47 1015.20 1014.79 1014.28 1013.70 1013.10 1012.50 1011.93 1011.37 1010.82 1010.22 1009.53
1017.53 1017.51 1017.52 1017.57 1017.65 1017.76 1017.86 1017.96 1018.01 1018.03 1017.99 1017.90 1017.75 1017.57 1017.36 1017.12 1016.86 1016.58 1016.29 1015.99 1015.70 1015.43 1015.21 1015.06 1014.99 1015.01 1015.10 1015.24 1015.37 1015.47 1015.47 1015.35 1015.07 1014.67 1014.15 1013.57 1012.97 1012.38 1011.82 1011.27 1010.71 1010.07 1009.29
1017.32 1017.29 1017.30 1017.35 1017.43 1017.54 1017.66 1017.76 1017.84 1017.88 1017.88 1017.82 1017.73 1017.58 1017.41 1017.19 1016.94 1016.64 1016.32 1015.97 1015.62 1015.29 1015.01 1014.81 1014.70 1014.71 1014.80 1014.95 1015.12 1015.25 1015.28 1015.18 1014.93 1014.54 1014.05 1013.48 1012.89 1012.31 1011.75 1011.20 1010.61 1009.90 1009.03
1016.93 1016.89 1016.90 1016.95 1017.03 1017.15 1017.27 1017.39 1017.48 1017.55 1017.59 1017.58 1017.54 1017.46 1017.34 1017.17 1016.94 1016.65 1016.31 1015.93 1015.52 1015.13 1014.79 1014.53 1014.37 1014.35 1014.42 1014.58 1014.77 1014.92 1015.00 1014.94 1014.74 1014.40 1013.94 1013.41 1012.85 1012.29 1011.73 1011.17 1010.53 1009.77 1008.79
1016.37 1016.33 1016.33 1016.37 1016.45 1016.56 1016.68 1016.80 1016.92 1017.01 1017.09 1017.14 1017.16 1017.15 1017.09 1016.98 1016.80 1016.54 1016.20 1015.80 1015.36 1014.91 1014.51 1014.18 1013.97 1013.89 1013.94 1014.09 1014.28 1014.46 1014.59 1014.60 1014.47 1014.20 1013.82 1013.35 1012.83 1012.30 1011.76 1011.18 1010.51 1009.69 1008.64
1015.72 1015.66 1015.64 1015.66 1015.72 1015.81 1015.91 1016.03 1016.15 1016.26 1016.37 1016.47 1016.56 1016.61 1016.63 1016.59 1016.47 1016.26 1015.96 1015.56 1015.10 1014.62 1014.16 1013.78 1013.50 1013.36 1013.36 1013.48 1013.67 1013.88 1014.05 1014.13 1014.09 1013.92 1013.63 1013.25 1012.80 1012.32 1011.81 1011.24 1010.56 1009.71 1008.62
1015.04 1014.95 1014.90 1014.89 1014.91 1014.97 1015.04 1015.13 1015.24 1015.36 1015.48 1015.62 1015.75 1015.87 1015.97 1016.01 1015.96 1015.82 1015.57 1015.21 1014.76 1014.27 1013.78 1013.34 1013.00 1012.80 1012.74 1012.82 1012.98 1013.20 1013.40 1013.55 1013.60 1013.53 1013.35 1013.07 1012.72 1012.32 1011.86 1011.32 1010.67 1009.83 1008.76
1014.45 1014.31 1014.22 1014.15 1014.13 1014.13 1014.16 1014.20 1014.27 1014.37 1014.48 1014.63 1014.79 1014.96 1015.12 1015.23 1015.28 1015.22 1015.04 1014.75 1014.35 1013.89 1013.39 1012.93 1012.55 1012.29 1012.16 1012.18 1012.30 1012.49 1012.71 1012.90 1013.01 1013.04 1012.97 1012.80 1012.56 1012.25 1011.87 1011.41 1010.82 1010.05 1009.05
1014.03 1013.84 1013.69 1013.56 1013.47 1013.40 1013.36 1013.33 1013.34 1013.38 1013.45 1013.57 1013.73 1013.93 1014.12 1014.30 1014.42 1014.46 1014.38 1014.19 1013.88 1013.48 1013.03 1012.58 1012.18 1011.87 1011.69 1011.63 1011.69 1011.84 1012.03 1012.22 1012.38 1012.47 1012.49 1012.42 1012.29 1012.09 1011.81 1011.45 1010.96 1010.31 1009.44
1013.84 1013.59 1013.37 1013.18 1013.01 1012.85 1012.72 1012.60 1012.51 1012.46 1012.46 1012.52 1012.63 1012.80 1013.01 1013.22 1013.41 1013.54 1013.58 1013.51 1013.32 1013.03 1012.67 1012.28 1011.90 1011.58 1011.35 1011.23 1011.21 1011.29 1011.42 1011.58 1011.73 1011.85 1011.92 1011.93 1011.89 1011.80 1011.64 1011.40 1011.04 1010.54 1009.85
1013.88 1013.57 1013.28 1013.01 1012.75 1012.51 1012.27 1012.04 1011.83 1011.66 1011.55 1011.50 1011.52 1011.62 1011.79 1012.01 1012.24 1012.45 1012.59 1012.66 1012.62 1012.48 1012.25 1011.96 1011.65 1011.36 1011.11 1010.94 1010.85 1010.84 1010.89 1010.98 1011.09 1011.20 1011.29 1011.35 1011.38 1011.38 1011.33 1011.22 1011.02 1010.69 1010.20
1014.09 1013.71 1013.36 1013.01 1012.67 1012.32 1011.98 1011.63 1011.29 1010.98 1010.72 1010.53 1010.43 1010.42 1010.51 1010.68 1010.91 1011.16 1011.40 1011.59 1011.71 1011.74 1011.67 1011.53 1011.33 1011.10 1010.88 1010.69 1010.55 1010.46 1010.42 1010.44 1010.48 1010.54 1010.62 1010.70 1010.78 1010.85 1010.90 1010.92 1010.86 1010.70 1010.41
1014.35 1013.92 1013.50 1013.08 1012.66 1012.23 1011.79 1011.33 1010.86 1010.41 1009.99 1009.63 1009.37 1009.21 1009.17 1009.25 1009.44 1009.70 1009.99 1010.29 1010.54 1010.73 1010.84 1010.86 1010.81 1010.69 1010.54 1010.37 1010.21 1010.08 1009.98 1009.91 1009.89 1009.90 1009.95 1010.02 1010.12 1010.24 1010.37 1010.49 1010.56 1010.57 1010.47
1014.55 1014.07 1013.60 1013.13 1012.65 1012.15 1011.63 1011.07 1010.49 1009.90 1009.33 1008.81 1008.38 1008.05 1007.86 1007.81 1007.90 1008.12 1008.41 1008.76 1009.12 1009.45 1009.71 1009.90 1010.01 1010.03 1009.98 1009.88 1009.75 1009.61 1009.49 1009.38 1009.30 1009.27 1009.28 1009.34 1009.45 1009.60 1009.77 1009.97 1010.15 1010.29 1010.35
1014.58 1014.06 1013.55 1013.05 1012.54 1012.00 1011.43 1010.81 1010.15 1009.46 1008.76 1008.10 1007.50 1007.01 1006.65 1006.45 1006.41 1006.53 1006.77 1007.11 1007.51 1007.92 1008.31 1008.64 1008.89 1009.06 1009.14 1009.15 1009.10 1009.01 1008.90 1008.79 1008.70 1008.65 1008.64 1008.69 1008.79 1008.95 1009.16 1009.40 1009.66 1009.89 1010.09
1014.38 1013.83 1013.30 1012.79 1012.27 1011.72 1011.14 1010.50 1009.80 1009.05 1008.27 1007.51 1006.78 1006.15 1005.63 1005.27 1005.08 1005.06 1005.21 1005.48 1005.86 1006.29 1006.73 1007.15 1007.52 1007.82 1008.04 1008.17 1008.23 1008.23 1008.20 1008.14 1008.08 1008.04 1008.04 1008.08 1008.18 1008.35 1008.57 1008.83 1009.13 1009.43 1009.71
1013.94 1013.38 1012.85 1012.34 1011.84 1011.31 1010.74 1010.11 1009.42 1008.66 1007.86 1007.04 1006.24 1005.50 1004.87 1004.37 1004.03 1003.86 1003.87 1004.02 1004.31 1004.69 1005.12 1005.57 1006.00 1006.39 1006.72 1006.98 1007.17 1007.30 1007.37 1007.40 1007.41 1007.43 1007.46 1007.52 1007.63 1007.79 1008.01 1008.28 1008.58 1008.91 1009.24
1013.32 1012.76 1012.24 1011.75 1011.27 1010.77 1010.23 1009.63 1008.97 1008.24 1007.46 1006.65 1005.83 1005.05 1004.35 1003.75 1003.29 1002.98 1002.84 1002.85 1003.00 1003.27 1003.62 1004.03 1004.47 1004.90 1005.31 1005.67 1005.98 1006.24 1006.44 1006.59 1006.70 1006.79 1006.88 1006.98 1007.11 1007.27 1007.48 1007.73 1008.03 1008.36 1008.70
1012.63 1012.07 1011.56 1011.08 1010.61 1010.13 1009.61 1009.04 1008.42 1007.73 1007.00 1006.23 1005.45 1004.68 1003.96 1003.33 1002.79 1002.38 1002.10 1001.97 1001.97 1002.09 1002.33 1002.65 1003.03 1003.46 1003.90 1004.33 1004.73 1005.10 1005.43 1005.70 1005.93 1006.12 1006.28 1006.43 1006.58 1006.75 1006.95 1007.18 1007.46 1007.77 1008.11
Thickness
5724 5723 5723 5721 5722 5722 5722 5722 5723 5723 5723 5723 5723 5723 5723 5723 5722 5721 5719 5717 5718 5719 5719 5720 5720 5720 5720 5720 5720 5720 5720 5720 5720 5720 5721 5721 5721 5721 5720 5721 5721 5721 5721
5720 5719 5719 5718 5718 5717 5718 5718 5718 5717 5717 5717 5717 5716 5716 5717 5717 5716 5715 5714 5712 5713 5713 5714 5714 5715 5715 5715 5715 5715 5715 5715 5715 5715 5716 5716 5716 5716 5716 5716 5716 5716 5717
5716 5716 5716 5715 5714 5713 5714 5714 5714 5713 5712 5712 5711 5711 5710 5710 5711 5711 5710 5710 5710 5707 5707 5707 5708 5709 5709 5710 5710 5710 5710 5710 5710 5710 5711 5711 5710 5710 5711 5711 5711 5711 5712
5712 5711 5711 5710 5709 5709 5709 5708 5709 5708 5707 5707 5707 5707 5706 5705 5706 5706 5706 5706 5705 5705 5703 5701 5702 5702 5703 5704 5704 5705 5705 5705 5705 5706 5706 5706 5706 5706 5706 5706 5706 5706 5706
5708 5708 5707 5706 5706 5705 5705 5705 5704 5704 5703 5701 5701 5701 5701 5701 5701 5702 5703 5702 5701 5700 5699 5697 5696 5697 5697 5698 5699 5699 5700 5700 5700 5701 5701 5701 5701 5701 5701 5701 5701 5701 5701
5705 5704 5703 5703 5703 5702 5701 5701 5699 5698 5698 5698 5698 5697 5697 5697 5697 5697 5698 5697 5697 5696 5696 5695 5694 5693 5692 5692 5693 5693 5694 5695 5696 5696 5696 5697 5697 5697 5697 5697 5696 5696 5696
5701 5701 5700 5700 5699 5698 5698 5698 5696 5695 5694 5695 5694 5692 5692 5693 5693 5692 5692 5692 5692 5691 5691 5691 5691 5690 5689 5687 5687 5688 5688 5690 5690 5691 5692 5692 5692 5692 5692 5692 5692 5691 5691
5699 5698 5698 5697 5696 5694 5694 5694 5692 5691 5691 5691 5691 5689 5687 5686 5686 5688 5688 5687 5688 5687 5687 5687 5687 5686 5685 5685 5683 5683 5683 5684 5685 5686 5687 5687 5687 5687 5687 5687 5687 5686 5685
5696 5695 5695 5694 5693 5693 5692 5690 5689 5687 5686 5688 5689 5687 5684 5682 5682 5684 5684 5684 5683 5683 5683 5683 5682 5682 5681 5681 5680 5678 5678 5679 5679 5680 5681 5682 5682 5682 5682 5682 5681 5681 5680
5693 5692 5692 5691 5691 5691 5689 5689 5688 5686 5684 5683 5684 5684 5685 5683 5680 5678 5679 5681 5680 5679 5679 5679 5678 5677 5677 5676 5674 5673 5672 5673 5674 5675 5675 5676 5676 5676 5676 5676 5676 5675 5675
5691 5690 5689 5689 5689 5688 5687 5686 5685 5684 5683 5682 5681 5681 5680 5679 5681 5677 5674 5675 5676 5676 5676 5675 5674 5673 5672 5672 5670 5668 5667 5667 5668 5668 5669 5670 5670 5670 5670 5670 5670 5670 5670
5689 5688 5686 5686 5685 5685 5684 5683 5682 5681 5680 5680 5679 5679 5678 5677 5677 5676 5674 5672 5671 5672 5672 5671 5670 5669 5668 5667 5665 5663 5662 5661 5662 5662 5663 5663 5664 5664 5664 5664 5664 5664 5664
5686 5686 5684 5683 5683 5681 5681 5680 5679 5679 5678 5676 5676 5676 5677 5677 5676 5675 5672 5670 5669 5669 5668 5668 5666 5665 5663 5662 5661 5658 5657 5656 5656 5656 5657 5657 5657 5658 5658 5658 5658 5658 5658
5685 5684 5682 5681 5680 5678 5677 5676 5676 5675 5676 5675 5674 5673 5672 5673 5672 5671 5669 5666 5664 5666 5666 5666 5664 5661 5660 5658 5657 5654 5654 5652 5651 5651 5651 5651 5652 5652 5652 5651 5652 5652 5652
5681 5680 5679 5678 5676 5675 5674 5673 5672 5672 5671 5671 5670 5670 5669 5669 5668 5667 5666 5665 5662 5660 5660 5662 5660 5658 5656 5654 5652 5651 5651 5648 5647 5646 5646 5646 5646 5646 5646 5646 5646 5646 5645
5677 5676 5675 5674 5673 5672 5671 5669 5668 5668 5668 5667 5665 5665 5664 5665 5664 5662 5661 5661 5660 5658 5657 5658 5656 5654 5651 5649 5647 5647 5646 5643 5642 5642 5641 5641 5641 5641 5640 5640 5640 5639 5640
5673 5672 5671 5671 5670 5669 5668 5666 5665 5664 5663 5663 5663 5662 5660 5660 5659 5658 5657 5656 5654 5653 5651 5652 5652 5650 5647 5646 5643 5642 5641 5640 5639 5637 5636 5636 5635 5635 5634 5634 5634 5633 5633
5669 5668 5667 5666 5665 5664 5664 5662 5661 5660 5660 5659 5659 5658 5657 5655 5654 5653 5652 5651 5650 5649 5647 5645 5645 5643 5643 5641 5639 5637 5637 5636 5635 5632 5631 5630 5630 5629 5628 5628 5627 5627 5627
5663 5662 5661 5661 5660 5659 5659 5658 5658 5657 5657 5656 5655 5654 5653 5652 5650 5649 5647 5646 5645 5644 5642 5640 5639 5637 5637 5635 5633 5632 5632 5631 5630 5628 5626 5625 5625 5624 5623 5622 5622 5622 5621
5657 5656 5655 5655 5654 5654 5654 5654 5654 5653 5653 5652 5652 5650 5649 5647 5645 5644 5642 5640 5639 5637 5636 5635 5633 5632 5630 5630 5628 5627 5627 5626 5625 5625 5623 5621 5620 5619 5618 5617 5616 5616 5616
5650 5650 5649 5649 5648 5648 5648 5648 5648 5648 5649 5648 5647 5645 5644 5641 5639 5637 5636 5635 5633 5631 5630 5628 5627 5627 5625 5623 5623 5623 5622 5621 5621 5620 5619 5618 5617 5616 5615 5613 5612 5611 5611
5643 5643 5642 5642 5642 5641 5640 5639 5640 5641 5642 5642 5641 5640 5638 5635 5632 5629 5627 5626 5625 5625 5625 5623 5622 5622 5622 5621 5619 5618 5616 5615 5615 5615 5614 5613 5612 5612 5612 5611 5609 5607 5606
5637 5636 5636 5635 5635 5635 5633 5632 5631 5634 5636 5636 5636 5635 5633 5631 5627 5626 5623 5620 5618 5617 5616 5618 5618 5618 5617 5616 5614 5612 5611 5610 5610 5610 5607 5608 5608 5607 5607 5605 5604 5602 5601
5631 5630 5630 5629 5628 5628 5626 5626 5625 5627 5629 5630 5630 5629 5628 5626 5624 5622 5620 5618 5617 5615 5612 5611 5613 5614 5612 5610 5608 5607 5606 5604 5603 5602 5600 5601 5602 5602 5601 5600 5598 5597 5596
5625 5624 5623 5622 5622 5621 5619 5619 5618 5621 5623 5623 5623 5622 5621 5620 5618 5614 5613 5613 5612 5611 5608 5605 5604 5603 5602 5600 5599 5598 5597 5596 5596 5596 5595 5595 5596 5595 5595 5594 5593 5591 5590
5619 5618 5617 5616 5616 5616 5613 5612 5610 5614 5616 5616 5616 5615 5612 5611 5609 5607 5607 5607 5606 5606 5604 5601 5598 5596 5595 5594 5592 5592 5592 5591 5591 5591 5591 5589 5590 5589 5589 5590 5588 5586 5585